Location: Madrid
(40.4000°N, 3.6830°W)
Time: 13:34:33
(UTC+02:00)

ISS - Pass Details

Date: 25 May 2020
Orbit: 417 x 419 km, 51.6° (Epoch: 31 May)

Event Time Altitude Azimuth Distance (km) Brightness Sun altitude
Rises 23:54:49 0° 312° (NW) 2,367 1.5 -20.7°
Reaches altitude 10° 23:57:24 10° 332° (NNW) 1,502 0.2 -21.0°
Maximum altitude 23:59:47 18° 18° (NNE) 1,114 -1.2 -21.2°
Enters shadow 00:01:24 14° 52° (NE) 1,302 -1.2 -21.4°
